This is the latest recevied weather packets stored in our database for station/object K7ZQU-7. If no packets are shown the sender has not sent any weather packets the latest 10 day(s).
| Time | Temp. | Humidity | Pressure | Rain* | Wind** | Luminosity | Snow |
|---|---|---|---|---|---|---|---|
| 1777578794 | 14.44° C | 44% | 1018.8 hPa | 0 mm | 2.24 m/s, 131° | - | - |
| 1777578495 | 14.44° C | 45% | 1018.8 hPa | 0 mm | 0.89 m/s, 169° | - | - |
| 1777578194 | 14.44° C | 45% | 1018.8 hPa | 0 mm | 1.34 m/s, 142° | - | - |
| 1777577913 | 13.89° C | 46% | 1018.9 hPa | 0 mm | 1.34 m/s, 198° | - | - |
| 1777577596 | 13.89° C | 47% | 1018.9 hPa | 0 mm | 0.89 m/s, 302° | - | - |
| 1777577297 | 13.89° C | 46% | 1018.9 hPa | 0 mm | 2.24 m/s, 156° | - | - |
| 1777576397 | 13.89° C | 46% | 1018.9 hPa | 0 mm | 1.79 m/s, 128° | - | - |
| 1777575198 | 13.33° C | 48% | 1018.9 hPa | 0 mm | 2.24 m/s, 165° | - | - |
| 1777574600 | 12.78° C | 49% | 1019 hPa | 0 mm | 2.24 m/s, 59° | - | - |
| 1777574301 | 12.78° C | 50% | 1018.9 hPa | 0 mm | 1.34 m/s, 184° | - | - |
| 1777574003 | 12.22° C | 50% | 1019 hPa | 0 mm | 2.68 m/s, 198° | - | - |
| 1777573103 | 11.67° C | 50% | 1019 hPa | 0 mm | 1.79 m/s, 134° | - | - |
| 1777572804 | 11.67° C | 51% | 1019 hPa | 0 mm | 1.34 m/s, 42° | - | - |
| 1777572203 | 11.67° C | 51% | 1019 hPa | 0 mm | 2.68 m/s, 180° | - | - |
| 1777571904 | 11.67° C | 51% | 1018.9 hPa | 0 mm | 2.24 m/s, 176° | - | - |
| 1777571605 | 11.67° C | 51% | 1018.8 hPa | 0 mm | 1.79 m/s, 125° | - | - |
| 1777571306 | 11.67° C | 52% | 1018.8 hPa | 0 mm | 1.79 m/s, 177° | - | - |
| 1777571007 | 11.67° C | 53% | 1018.8 hPa | 0 mm | 1.79 m/s, 122° | - | - |
| 1777570705 | 11.67° C | 54% | 1018.8 hPa | 0 mm | 1.34 m/s, 187° | - | - |
| 1777570406 | 11.67° C | 53% | 1018.8 hPa | 0 mm | 1.79 m/s, 135° | - | - |
| 1777570107 | 11.67° C | 53% | 1018.8 hPa | 0 mm | 2.24 m/s, 172° | - | - |
| 1777569808 | 11.67° C | 53% | 1018.8 hPa | 0 mm | 0.89 m/s, 302° | - | - |
| 1777569509 | 11.67° C | 53% | 1018.8 hPa | 0 mm | 1.34 m/s, 6° | - | - |
| 1777569207 | 11.67° C | 54% | 1018.6 hPa | 0 mm | 0.89 m/s, 89° | - | - |
| 1777568609 | 11.11° C | 54% | 1018.6 hPa | 0 mm | 2.24 m/s, 297° | - | - |
* Rain latest hour (hover to see other rain measurements)
** Current wind speed in m/s (hover to see current wind gust speed)